Home > Weather > Yorkton > Past weeks

Flag for Canada Past Weather in Yorkton, Saskatchewan, Canada — Yesterday and Last 2 Weeks

Now
61 °F

Scattered clouds.


Feels Like: 61 °F
Forecast: 57 / 76 °F
Wind: 6 mph from South

Location: Yorkton

Current Time: Aug 28, 2016 at 10:50:44 AM

Latest Report: Aug 28, 2016 at 10:00 AM


Visibility: 9 mi

Pressure: 29.83 "Hg (28.11 "Hg at 505m altitude)

Humidity: 77%

Dew Point: 54 °F

Location of YorktonLocation

Past Weather in Yorkton — Graph

°F

Yorkton Temperature Yesterday

Maximum temperature yesterday: 72 °F (at 3:00 PM)
Minimum temperature yesterday: 55 °F (at 12:00 AM)
Average temperature yesterday: 61 °F

High & Low Weather Summary for the Past Weeks

 TemperatureHumidityPressure
High86 °F (Aug 22, 3:00 PM)100% (Aug 15, 2:01 AM)30.12 "Hg (Aug 15, 2:01 AM)
Low43 °F (Aug 20, 6:00 AM)38% (Aug 22, 3:00 PM)29.53 "Hg (Aug 22, 4:00 PM)
Average62 °F75%29.91 "Hg
* Reported Aug 13 9:00 AM — Aug 28 9:00 AM, Yorkton, Weather by CustomWeather, © 2016

Note: Actual official high and low records may vary slightly from our data, if they occured in-between our weather recording intervals... More about our weather records

Advertising

Yorkton Weather History for the Previous 24 Hours

Scroll right to see more
 ConditionsComfort  
Time TempWeatherWind HumidityBarometerVisibility
9:00 AM
Sun, Aug 28
59 °FOvercast.8 mph77%29.81 "Hg9 mi
8:00 AM59 °FPartly sunny.15 mph72%29.79 "Hg9 mi
7:00 AM57 °FOvercast.13 mph77%29.78 "Hg9 mi
6:00 AM59 °FMostly cloudy.13 mph72%29.78 "Hg9 mi
5:45 AM59 °FOvercast.15 mph72%29.78 "Hg9 mi
5:00 AM59 °FOvercast.3 mph72%29.80 "Hg9 mi
4:00 AM59 °FMostly cloudy.12 mph68%29.79 "Hg9 mi
3:00 AM59 °FPassing clouds.13 mph68%29.80 "Hg9 mi
2:00 AM59 °FPassing clouds.14 mph68%29.81 "Hg9 mi
1:00 AM59 °FClear.13 mph68%29.82 "Hg9 mi
12:00 AM59 °FClear.13 mph68%29.83 "Hg9 mi
11:00 PM
Sat, Aug 27
59 °FClear.12 mph68%29.83 "Hg9 mi
10:00 PM59 °FClear.8 mph72%29.84 "Hg9 mi
9:00 PM59 °FClear.8 mph77%29.84 "Hg9 mi
8:00 PM61 °FClear.8 mph68%29.83 "Hg9 mi
7:00 PM68 °FSunny.7 mph56%29.82 "Hg9 mi
6:00 PM72 °FSunny.6 mph47%29.83 "Hg9 mi
5:00 PM72 °FSunny.6 mph41%29.82 "Hg9 mi
4:00 PM72 °FSunny.8 mph41%29.83 "Hg9 mi
3:00 PM72 °FScattered clouds.3 mph41%29.83 "Hg9 mi
2:00 PM70 °FScattered clouds.5 mph50%29.85 "Hg9 mi
1:00 PM68 °FScattered clouds.3 mph60%29.85 "Hg9 mi
12:00 PM64 °FPartly sunny.3 mph68%29.86 "Hg9 mi
11:00 AM61 °FPartly sunny.5 mph77%29.88 "Hg9 mi
10:00 AM59 °FOvercast.6 mph88%29.88 "Hg9 mi
Weather by CustomWeather, © 2016

See weather overviewHow to use our weather pages